When you browse on this site, cookies collect data to enhance your experience and personalize the content and advertising you see.
Visit our Privacy Policy to learn more. By continuing to use the site, you agree to this use of cookies and data.
  • In Sweden
  • List of Countries
  • For 7 days
  • Water Temperature
  • Weather Map
  • Weather Widgets
  • user-avatar
    Login

    Hourly Weather Northampton

    Today, 18 January, Saturday

    Time Temperature Precipitation Wind Pressure Humidity
    00:00 0°C° 0 mm 4 mps 755 mmHg 88%
    01:00 0°C° 0 mm 4 mps 756 mmHg 89%
    02:00 0°C° 0 mm 4 mps 756 mmHg 89%
    03:00 0°C° 0 mm 4 mps 757 mmHg 89%
    04:00 0°C° 0 mm 4 mps 757 mmHg 89%
    05:00 -1°C° 0 mm 4 mps 758 mmHg 89%
    06:00 -1°C° 0 mm 4 mps 758 mmHg 90%
    07:00 -1°C° 0 mm 4 mps 759 mmHg 90%
    08:00 -1°C° 0 mm 4 mps 759 mmHg 90%
    09:00 -1°C° 0 mm 4 mps 760 mmHg 90%
    10:00 0°C° 0 mm 4 mps 761 mmHg 85%
    11:00 +3°C° 0 mm 4 mps 761 mmHg 81%
    12:00 +4°C° 0 mm 4 mps 762 mmHg 77%
    13:00 +4°C° 0 mm 4 mps 762 mmHg 79%
    14:00 +4°C° 0 mm 3 mps 762 mmHg 80%
    15:00 +4°C° 0 mm 3 mps 763 mmHg 82%
    16:00 +3°C° 0 mm 3 mps 763 mmHg 84%
    17:00 +2°C° 0 mm 3 mps 764 mmHg 86%
    18:00 +1°C° 0 mm 3 mps 765 mmHg 87%
    19:00 +1°C° 0 mm 3 mps 765 mmHg 88%
    20:00 +1°C° 0 mm 3 mps 766 mmHg 89%
    21:00 +1°C° 0 mm 3 mps 766 mmHg 90%
    22:00 0°C° 0 mm 3 mps 767 mmHg 91%
    23:00 0°C° 0 mm 3 mps 768 mmHg 91%

    Tomorrow, 19 January, Sunday

    Time Temperature Precipitation Wind Pressure Humidity
    00:00 0°C° 0 mm 3 mps 769 mmHg 92%
    01:00 0°C° 0 mm 3 mps 769 mmHg 91%
    02:00 0°C° 0 mm 3 mps 769 mmHg 91%
    03:00 -1°C° 0 mm 2 mps 770 mmHg 90%
    04:00 -1°C° 0 mm 2 mps 770 mmHg 89%
    05:00 -1°C° 0 mm 2 mps 771 mmHg 88%
    06:00 -1°C° 0 mm 2 mps 771 mmHg 86%
    07:00 -1°C° 0 mm 2 mps 772 mmHg 85%
    08:00 +1°C° 0 mm 2 mps 773 mmHg 84%
    09:00 +1°C° 0 mm 2 mps 773 mmHg 83%
    10:00 +2°C° 0 mm 2 mps 774 mmHg 80%
    11:00 +4°C° 0 mm 2 mps 774 mmHg 76%
    12:00 +5°C° 0 mm 2 mps 775 mmHg 73%
    13:00 +5°C° 0 mm 2 mps 775 mmHg 75%
    14:00 +6°C° 0 mm 1 mps 775 mmHg 77%
    15:00 +6°C° 0 mm 1 mps 775 mmHg 80%
    16:00 +5°C° 0 mm 1 mps 775 mmHg 83%
    17:00 +3°C° 0 mm 1 mps 775 mmHg 86%
    18:00 +2°C° 0 mm 1 mps 776 mmHg 89%
    19:00 +1°C° 0 mm 2 mps 776 mmHg 89%
    20:00 +1°C° 0 mm 2 mps 776 mmHg 89%
    21:00 +1°C° 0 mm 2 mps 776 mmHg 88%
    22:00 +1°C° 0 mm 2 mps 776 mmHg 88%
    23:00 +1°C° 0 mm 2 mps 776 mmHg 87%

    Day after tomorrow, 20 January, Monday

    Time Temperature Precipitation Wind Pressure Humidity
    00:00 +1°C° 0 mm 2 mps 777 mmHg 87%
    01:00 +1°C° 0 mm 2 mps 776 mmHg 86%
    02:00 +1°C° 0 mm 2 mps 776 mmHg 85%
    03:00 +1°C° 0 mm 2 mps 776 mmHg 85%
    04:00 +1°C° 0 mm 2 mps 776 mmHg 84%
    05:00 +1°C° 0 mm 1 mps 776 mmHg 84%
    06:00 +1°C° 0 mm 1 mps 776 mmHg 83%
    07:00 +2°C° 0 mm 1 mps 776 mmHg 83%
    08:00 +2°C° 0 mm 1 mps 776 mmHg 83%
    09:00 +2°C° 0 mm 1 mps 776 mmHg 82%
    10:00 +3°C° 0 mm 1 mps 776 mmHg 78%
    11:00 +5°C° 0 mm 1 mps 776 mmHg 75%
    12:00 +5°C° 0 mm 2 mps 776 mmHg 71%
    13:00 +6°C° 0 mm 1 mps 776 mmHg 74%
    14:00 +6°C° 0 mm 1 mps 775 mmHg 76%
    15:00 +6°C° 0 mm 1 mps 775 mmHg 79%
    16:00 +5°C° 0 mm 1 mps 775 mmHg 81%
    17:00 +4°C° 0 mm 1 mps 774 mmHg 84%
    18:00 +2°C° 0 mm 1 mps 774 mmHg 86%
    19:00 +2°C° 0 mm 1 mps 774 mmHg 86%
    20:00 +2°C° 0 mm 1 mps 774 mmHg 86%
    21:00 +2°C° 0 mm 1 mps 774 mmHg 85%
    22:00 +2°C° 0 mm 1 mps 774 mmHg 85%
    23:00 +2°C° 0 mm 1 mps 774 mmHg 85%

    21 January, Tuesday

    Time Temperature Precipitation Wind Pressure Humidity
    00:00 +1°C° 0 mm 2 mps 774 mmHg 84%
    01:00 +1°C° 0 mm 2 mps 773 mmHg 84%
    02:00 -1°C° 0 mm 2 mps 773 mmHg 84%
    03:00 -1°C° 0 mm 2 mps 773 mmHg 83%
    04:00 -1°C° 0 mm 2 mps 773 mmHg 83%
    05:00 -1°C° 0 mm 2 mps 772 mmHg 83%
    06:00 -1°C° 0 mm 2 mps 772 mmHg 83%
    07:00 -1°C° 0 mm 2 mps 772 mmHg 83%
    08:00 +1°C° 0 mm 2 mps 773 mmHg 83%
    09:00 +2°C° 0 mm 1 mps 773 mmHg 83%
    10:00 +2°C° 0 mm 2 mps 773 mmHg 81%
    11:00 +3°C° 0 mm 2 mps 773 mmHg 80%
    12:00 +5°C° 0 mm 2 mps 772 mmHg 78%
    13:00 +5°C° 0 mm 2 mps 772 mmHg 80%
    14:00 +5°C° 0 mm 2 mps 772 mmHg 82%
    15:00 +5°C° 0 mm 2 mps 772 mmHg 84%
    16:00 +4°C° 0 mm 2 mps 771 mmHg 88%
    17:00 +3°C° 0 mm 2 mps 771 mmHg 91%
    18:00 +2°C° 0 mm 2 mps 771 mmHg 94%
    19:00 +2°C° 0 mm 2 mps 771 mmHg 94%
    20:00 +2°C° 0 mm 2 mps 771 mmHg 95%
    21:00 +3°C° 0 mm 1 mps 771 mmHg 95%
    22:00 +3°C° 0 mm 1 mps 771 mmHg 95%
    23:00 +2°C° 0 mm 1 mps 771 mmHg 95%

    22 January, Wednesday

    Time Temperature Precipitation Wind Pressure Humidity
    00:00 +2°C° 0 mm 1 mps 771 mmHg 95%
    01:00 +2°C° 0 mm 1 mps 771 mmHg 95%
    02:00 +2°C° 0 mm 1 mps 771 mmHg 95%
    03:00 +2°C° 0 mm 1 mps 771 mmHg 96%
    04:00 +3°C° 0 mm 1 mps 770 mmHg 96%
    05:00 +3°C° 0 mm 1 mps 770 mmHg 96%
    06:00 +3°C° 0 mm 1 mps 770 mmHg 96%
    07:00 +3°C° 0 mm 1 mps 770 mmHg 96%
    08:00 +2°C° 0 mm 2 mps 770 mmHg 96%
    09:00 +3°C° 0 mm 2 mps 770 mmHg 96%
    10:00 +5°C° 0 mm 1 mps 770 mmHg 94%
    11:00 +6°C° 0 mm 1 mps 770 mmHg 92%
    12:00 +7°C° 0 mm 1 mps 771 mmHg 90%
    13:00 +7°C° 0 mm 1 mps 770 mmHg 91%
    14:00 +7°C° 0 mm 1 mps 770 mmHg 92%
    15:00 +7°C° 0 mm 1 mps 770 mmHg 94%
    16:00 +7°C° 0 mm 1 mps 769 mmHg 95%
    17:00 +5°C° 0 mm 2 mps 769 mmHg 95%
    18:00 +5°C° 0 mm 2 mps 769 mmHg 96%
    19:00 +5°C° 0 mm 2 mps 769 mmHg 96%
    20:00 +5°C° 0 mm 2 mps 769 mmHg 97%
    21:00 +5°C° 0 mm 2 mps 770 mmHg 97%
    22:00 +5°C° 0 mm 2 mps 770 mmHg 97%
    23:00 +5°C° 0 mm 2 mps 769 mmHg 98%

    23 January, Thursday

    Time Temperature Precipitation Wind Pressure Humidity
    00:00 +5°C° 0 mm 2 mps 769 mmHg 98%
    01:00 +4°C° 0 mm 2 mps 769 mmHg 98%
    02:00 +4°C° 0 mm 2 mps 769 mmHg 98%
    03:00 +4°C° 0 mm 2 mps 768 mmHg 98%
    04:00 +3°C° 0 mm 2 mps 768 mmHg 98%
    05:00 +3°C° 0 mm 2 mps 768 mmHg 98%
    06:00 +2°C° 0 mm 2 mps 767 mmHg 97%
    07:00 +1°C° 0 mm 3 mps 767 mmHg 97%
    08:00 +1°C° 0 mm 3 mps 767 mmHg 97%
    09:00 +1°C° 0 mm 3 mps 767 mmHg 97%
    10:00 +2°C° 0 mm 3 mps 767 mmHg 92%
    11:00 +3°C° 0 mm 4 mps 767 mmHg 87%
    12:00 +4°C° 0 mm 4 mps 766 mmHg 81%
    13:00 +4°C° 0 mm 4 mps 766 mmHg 82%
    14:00 +4°C° 0 mm 4 mps 765 mmHg 82%
    15:00 +4°C° 0 mm 4 mps 765 mmHg 83%
    16:00 +3°C° 0 mm 3 mps 764 mmHg 86%
    17:00 +3°C° 0 mm 3 mps 764 mmHg 89%
    18:00 +2°C° 0 mm 3 mps 764 mmHg 92%
    19:00 +1°C° 0 mm 3 mps 764 mmHg 93%
    20:00 +1°C° 0 mm 3 mps 763 mmHg 94%
    21:00 0°C° 0 mm 3 mps 763 mmHg 95%
    22:00 +1°C° 0 mm 2 mps 763 mmHg 96%
    23:00 +1°C° 0 mm 2 mps 763 mmHg 96%
    Show more